HAWK-7B

Last updated on Tue Sep 15 2026 00:03:48 GMT+0000 (Coordinated Universal Time)

1 56193U 23054R 26257.44808740 .00004506 00000+0 16673-3 0 9995 2 56193 97.2571 140.7919 0003820 91.3400 268.8278 15.28169029190653
UTC large
Height (km)
Speed (km/s)
/
Latitude / Longitude
Inclination (degrees)
Orbital Period (minutes)
Azimuth
Elevation
Range (km)
Doppler Factor

Next 0 passes for location: London (51.5072 / 0.1276)

No passes found over London.
HAWK-7B